www.pogodaiklimat.ru

Погода и климат >> Архив погоды >> Россия >> Ленинградская область >> Лесогорский


ПОГОДА в Лесогорском

  • Прогноз погоды в Лесогорском
  • Монитор погоды в Лесогорском

АРХИВ ПОГОДЫ в Лесогорском

Время (UTC), дата Ветер
(напр.,м/с)
 
Видим.   Явления Облачность Т
(С)
Тd
(С)
f
(%)
Тe
(С)
Тes
(С)
Комфортность P
(гПа)
Po
(гПа)
Тmin
(С)
Tmax
(С)
R
(мм)
R24
(мм)
S
(см)
18 10.07 С 1 20 км 9/0
[Ac As]
+14.4 +6.8 60 +15 +15 1007.7 1003.0 +19.6
21 10.07 В 2 20 км 9/0
[Ac As]
+11.3 +5.2 66 +10 +10 1008.7 1003.9
00 11.07 СВ 1 20 км 9/0
[Ac As]
+9.2 +4.7 73 +9 +9 1008.9 1004.1
03 11.07 СВ 1 20 км 3/0
[Ac cast]
+8.6 +4.0 73 +8 +9 1009.4 1004.6 +8.2
06 11.07 СВ 1 20 км 9/3 1000 м
[Cu med, cong Ac As]
+9.3 +3.6 68 +9 +11 1009.6 1004.8 +8.2
09 11.07 В 2 20 км 9/6 1080 м
[Cu med, cong Ac As]
+12.5 +3.3 53 +12 +14 1009.6 1004.8
12 11.07 С 2 20 км 9/6 960 м
[Cu med, cong Ac As]
+13.4 +4.1 53 +13 +15 1009.1 1004.4
15 11.07 С 1 20 км 9/3 1000 м
[Cu med, cong Ac cast Cc]
+13.8 +3.2 49 +14 +16 1008.5 1003.8
18 11.07 З 1 20 км 6/0
[Ac As]
+13.1 +5.2 59 +13 +14 1008.0 1003.3 +14.9
21 11.07 В 1 20 км в посл. час ливневой дождь 9/9 480 м
[Cb cap]
+9.4 +7.8 90 +9 +9 1008.3 1003.5
00 12.07 С 1 10 км местами туман поземный {ливн. осадки} 6/0
[Ac As]
+6.7 +6.0 95 +6 +6 1008.1 1003.3
03 12.07 штиль 0 20 км 9/0
[Ac As Ci]
+7.7 +7.2 97 +7 +7 1007.8 1003.0 +5.6 0.0
06 12.07 СЗ 3 20 км 8/3 1000 м
[Cu med, cong Ac cast Cc]
+12.7 +6.5 66 +11 +14 1007.3 1002.6 +5.6 0.0
09 12.07 З 2 20 км 9/3 1000 м
[Cu med, cong Ac As]
+14.7 +4.8 51 +15 +18 1006.9 1002.2
12 12.07 З 3 20 км 9/0
[Ac As]
+16.1 +4.8 47 +16 +19 1006.1 1001.4
15 12.07 С 2 20 км 9/0
[Ac As]
+14.5 +6.4 58 +14 +16 1006.9 1002.2
18 12.07 С 1 20 км 9/0
[Ac As]
+13.4 +7.5 67 +14 +14 1007.2 1002.5 +16.2
21 12.07 штиль 0 20 км 8/3 600 м
[Cu hum Ac trans]
+9.5 +8.2 92 +9 +9 1007.6 1002.8
00 13.07 штиль 0 20 км 6/0
[Ac trans]
+5.1 +4.5 96 +4 +4 1007.6 1002.7
03 13.07 З 1 20 км 8/0
[Ac As]
+6.8 +6.4 97 +6 +6 1007.7 1002.9 +3.8
06 13.07 С 1 20 км 10/0
[Ac As]
+11.2 +9.5 89 +11 +13 1007.8 1003.0 +3.8
09 13.07 СЗ 2 20 км {ливн. осадки} 9/9 870 м
[Cb cap]
+13.4 +7.0 65 +13 +14 1008.5 1003.8
12 13.07 С 2 20 км {ливн. осадки} 9/9 900 м
[Sc diur, vesp]
+13.5 +6.5 63 +13 +14 1009.0 1004.3
15 13.07 С 3 50 км 8/8 960 м
[Cu hum]
+14.1 +4.8 53 +13 +14 1009.3 1004.6 0.0
18 13.07 С 1 20 км 4/0
[Ci]
+12.9 +5.1 59 +13 +14 1009.7 1005.0 +15.1 0.0
21 13.07 штиль 0 10 км местами туман поземный 1/0
[Ci fib]
+5.3 +4.7 96 +4 +4 1010.5 1005.6
00 14.07 штиль 0 10 км местами туман поземный ясно +2.8 +2.3 97 +2 +2 1011.0 1006.1
03 14.07 штиль 0 50 км ясно +3.8 +3.4 97 +3 +4 1011.4 1006.5 +1.7
06 14.07 С 1 50 км 3/0
[Ac trans]
+14.2 +8.1 67 +15 +21 1011.0 1006.3 +1.7
09 14.07 С 3 50 км 8/8 960 м
[Cu med, cong]
+15.6 +6.3 54 +15 +17 1011.2 1006.5
12 14.07 С 2 20 км {ливн. осадки} 8/8 700 м
[Cb cap]
+16.9 +5.8 48 +17 +20 1011.2 1006.5
15 14.07 С 3 50 км 9/9 800 м
[Cu med, cong]
+17.3 +5.5 46 +17 +18 1011.1 1006.4 0.0
18 14.07 С 1 50 км 8/8 800 м
[Cu med, cong]
+13.8 +6.4 61 +14 +14 1011.5 1006.8 +18.8 0.0
21 14.07 штиль 0 20 км 10/0
[Ac As]
+10.1 +8.0 87 +9 +9 1011.9 1007.1
00 15.07 штиль 0 20 км 10/0
[Ac As]
+9.0 +7.8 92 +8 +8 1011.6 1006.8
03 15.07 штиль 0 20 км 9/0
[Ac As]
+10.2 +9.1 93 +9 +10 1011.3 1006.5 +8.7
06 15.07 Ю 1 50 км 5/0
[Ac cast Cc]
+15.0 +10.3 73 +16 +21 1010.9 1006.2 +8.7
09 15.07 СЗ 1 20 км в посл. час ливневой дождь 9/8 570 м
[Cb cap Ac As]
+16.1 +7.8 58 +17 +19 1011.0 1006.3
12 15.07 ЮЗ 2 20 км в посл. час ливневой дождь 9/8 700 м
[Cb cap Ac As Ci]
+16.6 +9.3 62 +17 +19 1010.3 1005.6
15 15.07 ЮВ 2 20 км 9/3 1000 м
[Cu med, cong Ac lent Cc]
+16.8 +8.0 56 +17 +19 1010.1 1005.4 0.0
18 15.07 ЮВ 1 20 км 3/0
[Ci fib]
+16.4 +8.7 60 +17 +17 1009.8 1005.1 +19.2 0.0
21 15.07 штиль 0 20 км ясно +7.8 +6.9 94 +7 +7 1010.1 1005.3
00 16.07 штиль 0 10 км местами туман поземный ясно +4.5 +4.0 97 +3 +3 1010.6 1005.7
03 16.07 штиль 0 10 км местами туман поземный 1/0
[Ac lent]
+5.8 +5.4 97 +5 +6 1010.5 1005.6 +4.0
06 16.07 ЮВ 2 50 км 3/0
[Ci fib]
+17.3 +11.4 68 +18 +24 1010.0 1005.3 +4.0
09 16.07 ЮВ 2 50 км 6/0
[Ac trans]
+20.3 +9.4 50 +22 +30 комфорт 1010.3 1005.7
12 16.07 В 4 50 км 4/0
[Ac trans]
+21.6 +8.9 44 +23 +29 комфорт 1009.8 1005.2
15 16.07 В 3 50 км 4/0
[Ac trans Ci]
+20.8 +8.4 45 +23 +26 комфорт 1009.9 1005.3
18 16.07 В 1 20 км 3/0
[Ci fib]
+17.5 +7.8 53 +19 +19 1010.7 1006.0 +21.8
21 16.07 С 1 20 км 3/0
[Ci fib]
+8.6 +7.1 90 +8 +8 1011.3 1006.5
00 17.07 СЗ 1 20 км 1/0
[Ac trans]
+7.5 +6.9 96 +6 +6 1010.9 1006.1
03 17.07 штиль 0 50 км 3/0
[Ci fib]
+11.9 +10.2 89 +11 +12 1010.9 1006.1 +7.0
06 17.07 В 2 50 км 4/0
[Ci fib]
+16.6 +11.1 70 +17 +23 1010.7 1006.0 +7.0
09 17.07 В 2 50 км 3/0
[Ci fib]
+20.3 +11.1 55 +23 +34 комфорт 1010.6 1006.0
12 17.07 В 3 50 км 5/0
[Ac As]
+20.5 +8.3 45 +22 +28 комфорт 1010.7 1006.1
15 17.07 В 1 50 км 9/0
[Ac As]
+18.7 +7.7 49 +20 +22 1010.4 1005.7

 

Местоположение метеостанции Лесогорский (Ленинградская область, Россия): широта 61.03 долгота 28.93 высота над уровнем моря 40 м.

В архиве по умолчанию представлена погода в Лесогорском за последнюю неделю. Архивные данные за месяц целиком и за предыдущие месяцы, начиная с января 2011 года, Вы можете получить, выбрав интересующий диапазон дат из раскрывающегося списка и нажав кнопку "Ввод!".


*Определитесь, кто Вы:
робот инопланетянин человек

Внимание! Время в таблицах - всемирное. Для получения местного времени необходимо прибавить поправку, которая равна 3 ч.

Смотрите также архив погоды в соседних городах и на ближайших метеорологических станциях:

Погода в Хиеккапакке (Финляндия) (31 км)
Погода в Выборге (Ленинградская область, Россия) (36 км)
Погода в Лаппеенранте (Финляндия) (39 км)
Погода в Лаппеенранта аэропорту (Финляндия) (42 км)
Погода в Париккала Коицанлахти (Финляндия) (54 км)
Погода в Пуумале (Финляндия) (67 км)
Погода в Лаукансаари (Финляндия) (88 км)
Погода в Коивуниеми (Финляндия) (88 км)
Погода в Озерках (Ленинградская область, Россия) (92 км)
Погода в Сосново (Ленинградская область, Россия) (92 км)

Пояснения к столбцам:

Ветер - указаны скорость ветра в м/с - средняя за 10 мин, порывы в срок и между сроками (в фигурных скобках) и направление, откуда дует ветер: С - северный, СВ - северо-восточный, В - восточный, ЮВ - юго-восточный, Ю - южный, ЮЗ - юго-западный, З - западный, СЗ - северо-западный.
Видимость - горизонтальная дальность видимости в метрах или километрах. При видимости от 1 до 10 км при отсутствии осадков обычно наблюдается дымка, при ухудшении видимости до 1 км и менее - туман. В сухую погоду видимость может ухудшаться дымом, пылью или мглою.
Явления - указаны атмосферные явления, наблюдавшиеся в срок или в последний час перед сроком; фигурными скобками обозначены явления, наблюдавшиеся между сроками (за 1-3 часа до срока); квадратными скобками обозначены град или гололедные отложения с указанием их диаметра в мм.
Облачность - указаны через наклонную черту общая и нижняя облачность в баллах и высота нижней границы облаков в метрах; квадратными скобками обозначены формы облаков: Ci - перистые, Cs - перисто-слоистые, Cc - перисто-кучевые, Ac - высококучевые, As - высокослоистые, Sc - слоисто-кучевые, Ns - слоисто-дождевые, Cu - кучевые, Cb - кучево-дождевые. Подробнее классификацию облаков см. в Атласе облаков (PDF).
T - Температура воздуха - температура, измеренная на высоте 2 м над землей.
Td - Температура точки росы - температура, при понижении до которой содержащийся в воздухе водяной пар достигнет насыщения.
f - Относительная влажность воздуха - влажноcть воздуха, измеренная на высоте 2 м над землей.
Te - Эффективная температура - температура, которую ощущает одетый по сезону человек в тени. Характеристика душности погоды. При расчете учитывается влияние влажности воздуха и скорости ветра на теплоощущения человека.
Tes - Эффективная температура на солнце - температура, которую ощущает человек, с поправкой на солнечный нагрев. Характеристика знойности погоды. Зависит от высоты солнца над горизонтом, облачности и скорости ветра. Ночью, в пасмурную погоду, а также при ветре 12 м/с и более поправка равна нулю.
P - Атмосферное давление - приведенное к уровню моря атмосферное давление.
Po - Атмосферное давление - измеренное на уровне метеостанции атмосферное давление.
Tmin - Минимальная температура - минимум температуры воздуха на высоте 2 м над землей.
Tmax - Максимальная температура - максимум температуры воздуха на высоте 2 м над землей.
R - Количество осадков - Количество выпавших осадков за период времени, мм. При наведении курсора мыши на число - период времени, за который выпало указанное количество осадков.
R24 - Количество осадков - Количество выпавших осадков за 24 часа, мм.
S - Снежный покров - Высота снежного покрова, см. При наведении курсора мыши на число - состояние снежного покрова и степень покрытия местности в баллах.